OneWeb SL0687

operational
NORAD ID: 61595 Int'l Des: 2024-188 Owner: ONEWEBE Country: UK Constellation: oneweb
LEOCIRCULARPOLARONEWEB_TYPE

OneWeb SL0687について

説明を読み込み中...

リアルタイム位置

3D地球を読み込み中...

次回通過

高度履歴

Altitude vs Time

uPlot chart will show altitude changes over time

軌道要素

1 61595U 24188B 25298.81583066 .00000055 00000-0 10836-3 0 9993
2 61595 87.9106 52.5092 0001693 79.6295 280.5027 13.17650370 55039
Epoch: Oct 25, 2025 • Age: 12 hours

現在のステータス

高度 1218.1 km
速度 7.24 km/s
衛星直下点 -60.73°S, 106.71°W
打ち上げ日 Oct 20, 2024
運用期間 1 years
タイプ internet

技術仕様

分類 Payload
質量 148.00 kg
乾燥質量 140.00 kg
総質量 148.00 kg
長さ 1.30 m
直径 1.00 m
スパン 5.00 m
形状 Trapezoid+2 pan
製造者 ONEWUS
バスタイプ ARROW
フェーズステータス In Orbit
所有者/国 ONEWEBE/UK

大規模コンステレーション

Loading constellations...